Showing default

LEMUR 2 ALISIA, 62706

Orbit data source: Space-Track

LEMUR 2 ALISIA, 62706 is a payload satellite owned by Spire (US) in SSO that was launched on Tue, 14 Jan 2025 UTC via an FALCON 9 launch vehicle from the Air Force Western Test Range (AFWTR). Payload-class satellites include a variety of spacecraft equipped with specific instruments for various scientific and technological missions. These include communications satellites like Starlink; space stations such as the ISS; scientific satellites like the Hubble; Earth observation satellites from companies like Planet Labs, Umbra, and HawkEye 360; GPS; miniature CubeSats for education and research; and military/defense satellites.

Loading next visibility...
Identifier
62706, 2025-009DB
Orbit
SSO
Country
Flag of USUS
Related business
Manufacturer
Spire/Glasgow
Mission
Operational Commercial Com/MetRO
Bus & Motor
CUBESAT 3U, Unknown motor
Mass
7.6 kg wet, 7.6 kg dry
Launch date (UTC)
2025-01-14 (1 year ago)
Launch vehicle
FALCON 9
Launch site
Air Force Western Test Range (AFWTR)
Object type
Payload
Rocket body
Debris
Shape & HBR
Box + 2 Pan, 0.2 m
Radar Cross Section
0.063 m², Small (<0.1 m²)

Expand to show TLE details & history
Last TLE update: 11 hours ago

TLE from 11 hours ago
0 LEMUR 2 ALISIA
1 62706U 25009DB  26095.19657286  .00011174  00000-0  86392-3 0  9998
2 62706  97.6930 177.9313 0005327 103.0203 257.1616 15.01659359 89205
Epoch: 2026-04-05T04:43Z
TLE epoch observation values (Epoch: 2026-04-05T04:43:03.895Z)
Latitude
-0.00003°
Longitude
-86.34039°
Altitude
565.66 km
Speed
7.578 km/s
True Right ascension
11h 51m 43s
True Declination
0° 00' 00"
Sunlit
Object was in full shadow at epoch
Visualization orbit readout
Latitude
Unknown
Longitude
Unknown
Altitude
Unknown
Speed
Unknown
Apparent Right ascension
Unknown
Apparent Declination
Unknown
Sunlit
N/A
Visualization observer readout
Local Sidereal Time
21:58:57
Azimuth
Unknown
Elevation
Unknown
Doppler factor
Unknown
Orbital elements
Apogee altitude
562.477 km
Perigee altitude
555.087 km
Semi-major axis
6,936.919 km
Eccentricity
0.00053
Inclination
97.693°
RAAN
177.9313°
Arg. of periapsis
103.0203°
True anomaly
257.10209°
Mean anomaly
257.1616°
Eccentric anomaly
257.13185°
Mean motion
3.75659 °/min
Orbital period
95.83 mins
BSTAR
0.00086392
Loading maneuver chart data...
Computing Atmospheric mass density...
Loading historical data...
Loading historical data...
Loading historical data...
Loading historical data...
Loading historical data...
Loading historical data...
Loading historical data...

Documentation

Showing up to 5 results
|